DW7394 Weather Reports


time (UTC)temp
F
wind
direction
speed
knots
gust
knots
rain 1hr
in
rain 24hr
in
rain mn
in
humidity
%
barometer
mb
20260505025036 65 200 10.4 20.9 0.00 0.01 0.01 65 1003.6
20260505024534 65 241 7.0 22.6 0.00 0.01 0.01 65 1003.6
20260505024036 65 169 9.6 22.6 0.00 0.01 0.01 64 1003.6
20260505023538 65 204 7.0 21.7 0.00 0.01 0.01 64 1003.5
20260505023033 65 188 7.8 16.5 0.00 0.01 0.01 64 1003.6
20260505022533 66 180 6.1 18.2 0.00 0.01 0.01 63 1003.5
20260505022032 66 171 9.6 18.2 0.00 0.01 0.01 63 1003.5
20260505021533 66 179 7.0 16.5 0.00 0.01 0.01 62 1003.5
20260505021032 66 100 7.0 18.2 0.00 0.01 0.01 62 1003.5
20260505020532 66 188 7.8 20.0 0.00 0.01 0.01 61 1003.8
20260505020032 66 149 10.4 28.7 0.00 0.01 0.01 61 1003.8
20260505015532 67 229 7.8 28.7 0.00 0.01 0.01 61 1003.8
20260505015035 67 213 7.0 25.2 0.00 0.01 0.01 60 1003.7
20260505014532 67 221 11.3 27.8 0.00 0.01 0.01 60 1003.7
20260505014033 67 213 8.7 27.8 0.00 0.01 0.01 60 1003.7
20260505013531 67 192 8.7 19.1 0.00 0.01 0.01 59 1003.6
20260505013039 67 96 7.0 20.0 0.00 0.01 0.01 59 1003.6
20260505012530 67 236 9.6 24.3 0.00 0.01 0.01 59 1003.5
20260505012030 67 190 13.0 24.3 0.00 0.01 0.01 59 1003.5
20260505011530 67 188 12.2 23.5 0.00 0.01 0.01 59 1003.5
20260505011029 68 229 8.7 15.6 0.00 0.01 0.01 58 1003.3
20260505010529 68 179 6.1 22.6 0.00 0.01 0.01 58 1003.4
20260505010030 68 204 11.3 22.6 0.00 0.01 0.01 58 1003.4
20260505005533 68 210 7.0 18.2 0.00 0.01 0.01 58 1003.2
20260505005029 68 220 7.0 17.4 0.00 0.01 0.01 58 1003.2
20260505004529 68 177 7.0 15.6 0.00 0.01 0.01 58 1003.1
20260505004029 68 214 7.0 17.4 0.00 0.01 0.01 58 1003.0
20260505003533 68 199 9.6 17.4 0.00 0.01 0.01 58 1003.0
20260505003032 68 309 5.2 15.6 0.00 0.01 0.01 57 1003.0
20260505002528 69 218 7.8 18.2 0.00 0.01 0.01 57 1003.0
20260505002030 69 238 7.8 26.1 0.00 0.01 0.01 57 1002.9
20260505001528 69 167 13.0 26.1 0.00 0.01 0.01 57 1002.8
20260505001029 69 211 13.9 24.3 0.00 0.01 0.01 57 1002.8
20260505000531 69 184 8.7 22.6 0.00 0.01 0.01 57 1002.6
20260505000029 69 176 7.8 18.2 0.00 0.01 0.01 57 1002.5
20260504235527 70 217 7.8 23.5 0.00 0.01 0.01 56 1002.4
20260504235027 70 189 16.5 23.5 0.00 0.01 0.01 56 1002.3
20260504234526 70 185 7.8 18.2 0.00 0.01 0.01 56 1002.3
20260504234031 70 190 9.6 16.5 0.01 0.01 0.01 57 1002.3
20260504233526 70 194 7.8 28.7 0.01 0.01 0.01 57 1002.2
20260504233026 70 240 15.6 28.7 0.01 0.01 0.01 57 1002.3
20260504232526 70 191 7.0 22.6 0.01 0.01 0.01 58 1002.2
20260504232027 70 202 6.1 30.4 0.01 0.01 0.01 58 1002.2
20260504231526 70 209 7.8 30.4 0.01 0.01 0.01 58 1002.2
20260504231025 70 181 12.2 26.9 0.01 0.01 0.01 59 1002.3
20260504230525 70 214 9.6 25.2 0.01 0.01 0.01 60 1002.4
20260504230025 70 216 12.2 33.9 0.01 0.01 0.01 60 1002.2
20260504225524 69 196 12.2 33.9 0.01 0.01 0.01 61 1002.4
20260504225024 69 220 7.8 26.9 0.01 0.01 0.01 63 1002.7
20260504224522 69 229 11.3 27.8 0.01 0.01 0.01 63 1002.7
20260504224022 68 184 13.9 27.8 0.00 0.00 0.00 64 1002.7
20260504223521 68 205 7.0 18.2 0.00 0.00 0.00 67 1002.6
20260504223020 67 183 9.6 18.2 0.00 0.00 0.00 68 1002.7
20260504222523 67 160 4.3 14.8 0.00 0.00 0.00 69 1002.8
20260504222021 67 214 6.1 14.8 0.00 0.00 0.00 70 1002.8
20260504221518 67 126 3.5 9.6 0.00 0.00 0.00 70 1003.0
20260504221018 67 227 5.2 15.6 0.00 0.00 0.00 68 1003.2
20260504220518 68 206 7.0 23.5 0.00 0.00 0.00 68 1003.2
20260504220029 68 204 8.7 30.4 0.00 0.00 0.00 66 1003.3
20260504215515 69 210 16.5 30.4 0.00 0.00 0.00 64 1003.5
20260504215014 71 153 14.8 26.9 0.00 0.00 0.00 57 1003.2
20260504214520 71 260 6.1 20.0 0.00 0.00 0.00 56 1003.1
20260504214017 71 194 11.3 20.0 0.00 0.00 0.00 56 1003.1
20260504213513 71 274 8.7 18.2 0.00 0.00 0.00 56 1002.9
20260504213133 71 276 7.8 17.4 0.00 0.00 0.00 57 1002.9
20260504212511 71 167 7.8 24.3 0.00 0.00 0.00 56 1003.0
20260504212010 71 184 13.0 20.9 0.00 0.00 0.00 55 1003.0
20260504211521 71 197 11.3 24.3 0.00 0.00 0.00 54 1003.1
20260504211008 71 201 13.0 24.3 0.00 0.00 0.00 54 1003.3
20260504210508 71 204 12.2 24.3 0.00 0.00 0.00 55 1003.4
20260504210007 71 219 11.3 24.3 0.00 0.00 0.00 54 1003.3
20260504205509 71 201 12.2 22.6 0.00 0.00 0.00 53 1003.5
20260504205005 72 206 11.3 25.2 0.00 0.00 0.00 52 1003.5
20260504204514 72 226 7.0 27.8 0.00 0.00 0.00 53 1003.5
20260504204005 72 215 13.0 32.2 0.00 0.00 0.00 52 1003.5
20260504203508 72 207 13.0 32.2 0.00 0.00 0.00 51 1003.5
20260504203006 72 166 11.3 26.9 0.00 0.00 0.00 51 1003.6
20260504202503 72 205 13.0 30.4 0.00 0.00 0.00 51 1003.7
20260504202001 73 231 15.6 30.4 0.00 0.00 0.00 49 1003.8
20260504201503 73 213 13.9 24.3 0.00 0.00 0.00 50 1003.9
20260504201001 73 229 13.0 20.9 0.00 0.00 0.00 50 1003.7
20260504200600 73 220 10.4 25.2 0.00 0.00 0.00 49 1003.8
20260504200107 73 213 13.0 31.3 0.00 0.00 0.00 49 1003.9
20260504195559 73 161 9.6 31.3 0.00 0.00 0.00 50 1004.0
20260504195059 73 221 12.2 24.3 0.00 0.00 0.00 48 1004.1
20260504194609 73 189 13.9 31.3 0.00 0.00 0.00 48 1004.2
20260504194058 73 195 12.2 31.3 0.00 0.00 0.00 49 1004.1
20260504193558 73 175 11.3 21.7 0.00 0.00 0.00 49 1004.1
20260504193104 73 188 11.3 31.3 0.00 0.00 0.00 50 1004.2
20260504192555 73 221 13.0 31.3 0.00 0.00 0.00 47 1004.4
20260504192104 73 211 10.4 21.7 0.00 0.00 0.00 51 1004.5
20260504191600 72 185 11.3 22.6 0.00 0.00 0.00 50 1004.4
20260504191054 72 180 11.3 29.5 0.00 0.00 0.00 51 1004.6
20260504190553 72 131 12.2 29.5 0.00 0.00 0.00 51 1004.6
20260504190113 72 180 8.7 23.5 0.00 0.00 0.00 51 1004.7
20260504185556 72 162 10.4 23.5 0.00 0.00 0.00 51 1004.7
20260504185050 72 176 11.3 23.5 0.00 0.00 0.00 51 1004.9
20260504184608 72 197 12.2 22.6 0.00 0.00 0.00 51 1004.9
20260504184049 72 245 11.3 26.9 0.00 0.00 0.00 52 1005.0
20260504183549 72 223 14.8 26.9 0.00 0.00 0.00 51 1005.1
20260504183048 72 216 13.9 30.4 0.00 0.00 0.00 51 1005.2
20260504182547 72 218 11.3 30.4 0.00 0.00 0.00 51 1005.1
20260504182047 72 234 13.9 24.3 0.00 0.00 0.00 50 1005.2
20260504181548 72 198 8.7 26.9 0.00 0.00 0.00 49 1005.2
20260504181044 72 221 10.4 26.9 0.00 0.00 0.00 53 1005.2
20260504180544 71 171 7.8 25.2 0.00 0.00 0.00 49 1005.2
20260504180044 72 147 12.2 24.3 0.00 0.00 0.00 49 1005.4
20260504175542 71 230 7.0 24.3 0.00 0.00 0.00 51 1005.4
20260504175042 71 227 10.4 23.5 0.00 0.00 0.00 51 1005.5
20260504174542 71 130 11.3 23.5 0.00 0.00 0.00 49 1005.5
20260504174041 71 173 13.0 23.5 0.00 0.00 0.00 50 1005.6
20260504173541 71 176 8.7 18.2 0.00 0.00 0.00 50 1005.6
20260504173039 71 154 7.8 22.6 0.00 0.00 0.00 51 1005.7
20260504172539 71 163 9.6 22.6 0.00 0.00 0.00 50 1005.6
20260504172038 71 188 9.6 22.6 0.00 0.00 0.00 50 1005.7
20260504171537 71 209 7.0 15.6 0.00 0.00 0.00 52 1005.8
20260504171037 71 214 7.0 16.5 0.00 0.00 0.00 54 1005.8
20260504170534 70 223 7.0 21.7 0.00 0.00 0.00 52 1005.9
20260504151011 65 220 9.6 24.3 0.00 0.00 0.00 56 1007.0
20260504150510 65 211 11.3 24.3 0.00 0.00 0.00 56 1007.0
20260504141056 62 240 9.6 17.4 0.00 0.00 0.00 59 1007.3
20260504140554 61 204 9.6 16.5 0.00 0.00 0.00 60 1007.4
20260504140107 61 203 7.0 18.2 0.00 0.00 0.00 60 1007.5
20260504130541 57 213 7.8 17.4 0.00 0.00 0.00 62 1007.8
20260504110519 50 216 8.7 20.9 0.00 0.00 0.00 65 1007.7
20260504100511 51 180 7.8 20.0 0.00 0.00 0.00 64 1007.6
20260504081557 51 210 11.3 21.7 0.00 0.00 0.00 62 1008.5
20260504081057 51 202 10.4 21.7 0.00 0.00 0.00 62 1008.6
20260504080559 51 212 9.6 20.9 0.00 0.00 0.00 62 1008.6
20260504050531 50 213 7.0 18.2 0.00 0.00 0.00 63 1010.9
20260504045525 50 243 9.6 21.7 0.00 0.00 0.00 63 1011.1
20260504045024 50 182 5.2 21.7 0.00 0.00 0.00 63 1011.1
20260504044526 50 201 7.8 21.7 0.00 0.00 0.00 62 1011.1
20260504044023 50 190 8.7 18.2 0.00 0.00 0.00 62 1011.2
20260504043522 50 206 6.1 14.8 0.00 0.00 0.00 62 1011.2
20260504043021 50 232 7.8 17.4 0.00 0.00 0.00 62 1011.2
20260504042521 51 215 8.7 17.4 0.00 0.00 0.00 62 1011.3
20260504042018 51 177 7.8 15.6 0.00 0.00 0.00 62 1011.3
20260504041517 51 120 7.8 17.4 0.00 0.00 0.00 62 1011.3
20260504041016 51 236 8.7 17.4 0.00 0.00 0.00 62 1011.4
20260504040515 51 191 7.0 15.6 0.00 0.00 0.00 63 1011.4
20260504040014 51 222 5.2 13.0 0.00 0.00 0.00 63 1011.4
20260504035515 51 205 5.2 13.0 0.00 0.00 0.00 63 1011.5
20260504035013 51 187 6.1 13.9 0.00 0.00 0.00 63 1011.5
20260504034523 51 221 5.2 14.8 0.00 0.00 0.00 63 1011.6
20260504034012 51 208 5.2 13.0 0.00 0.00 0.00 63 1011.7
20260504033511 51 152 7.8 13.0 0.00 0.00 0.00 63 1011.8
20260504033021 51 281 5.2 13.0 0.00 0.00 0.00 63 1011.9
20260504032511 51 184 3.5 15.6 0.00 0.00 0.00 63 1011.9
20260504032012 51 236 5.2 15.6 0.00 0.00 0.00 63 1011.9
20260504031510 51 208 6.1 13.9 0.00 0.00 0.00 63 1012.0
20260504031010 51 194 5.2 14.8 0.00 0.00 0.00 63 1012.0
20260504030512 50 223 7.8 14.8 0.00 0.00 0.00 63 1012.1
20260504030010 51 201 6.1 13.9 0.00 0.00 0.00 63 1012.1
20260504025512 51 179 8.7 13.9 0.00 0.00 0.00 63 1012.2